This is the latest recevied weather packets stored in our database for station/object W4TTU-1. If no packets are shown the sender has not sent any weather packets the latest 10 day(s).
| Time | Temp. | Humidity | Pressure | Rain* | Wind** | Luminosity | Snow |
|---|---|---|---|---|---|---|---|
| 1777975387 | 6.11° C | 29% | 846.1 hPa | 0 mm | - | - | - |
| 1777974486 | 6.67° C | 29% | 846.1 hPa | 0 mm | - | - | - |
| 1777973585 | 6.67° C | 30% | 846.1 hPa | 0 mm | - | - | - |
| 1777972685 | 6.67° C | 29% | 846.2 hPa | 0 mm | - | - | - |
| 1777971784 | 6.67° C | 29% | 846.3 hPa | 0 mm | - | - | - |
| 1777970884 | 7.22° C | 29% | 846.2 hPa | 0 mm | - | - | - |
| 1777969983 | 7.22° C | 29% | 846.4 hPa | 0 mm | - | - | - |
| 1777969083 | 7.22° C | 30% | 846.6 hPa | 0 mm | - | - | - |
| 1777968182 | 7.78° C | 30% | 846.6 hPa | 0 mm | - | - | - |
| 1777967282 | 7.78° C | 29% | 846.6 hPa | 0 mm | - | - | - |
| 1777966381 | 7.78° C | 30% | 846.7 hPa | 0 mm | - | - | - |
| 1777964577 | 8.33° C | 29% | 846.5 hPa | 0 mm | - | - | - |
| 1777962776 | 8.33° C | 29% | 846.3 hPa | 0 mm | - | - | - |
| 1777961876 | 8.89° C | 29% | 846.2 hPa | 0 mm | - | - | - |
| 1777960975 | 8.89° C | 29% | 846.2 hPa | 0 mm | - | - | - |
| 1777959174 | 9.44° C | 29% | 845.9 hPa | 0 mm | - | - | - |
| 1777958274 | 10° C | 29% | 845.9 hPa | 0 mm | - | - | - |
| 1777957373 | 10° C | 29% | 845.9 hPa | 0 mm | - | - | - |
| 1777956474 | 10.56° C | 28% | 845.9 hPa | 0 mm | - | - | - |
| 1777955572 | 10.56° C | 28% | 845.8 hPa | 0 mm | - | - | - |
| 1777954671 | 11.11° C | 27% | 845.7 hPa | 0 mm | - | - | - |
| 1777953771 | 11.67° C | 27% | 845.6 hPa | 0 mm | - | - | - |
| 1777952872 | 11.67° C | 28% | 845.4 hPa | 0 mm | - | - | - |
| 1777951970 | 12.22° C | 26% | 845.3 hPa | 0 mm | - | - | - |
| 1777951069 | 12.78° C | 26% | 845.2 hPa | 0 mm | - | - | - |
* Rain since midnight (hover to see other rain measurements)
** Current wind speed in m/s (hover to see current wind gust speed)